Volver al catálogo

STARLINK-31921

ActivoComunicacionesVLEO
NORAD 59868·PAYLOAD·🇺🇸 United States

Lanzado May 24, 2024 desde Cape Canaveral Space Force Station

Loading…

Próximos Pases (próximas 24 horas)

TLE

ActualizadoSource: CelesTrak SupGP

Época: Sep 14, 2026, 22:55 UTC

1 59868C 24098L   26257.95534722  .00024755  00000+0  89677-3 0  2577
2 59868  42.9992 248.7685 0001368 263.4769 221.8864 15.27561309    19

Sigue STARLINK-31921 en tiempo real con AllMySat

Download on the App Store